Weather in Zouerat

Mauritania     23°07′51″N   12°02′49″W
temp.,
°C
wind,
m/s
gust,
m/s
humid.,
%
clouds,
%
prec.,
mm/h
press.,
hPa
HPBL,
m
25 june, sat
sat2500:00+28n711240 0.0 1014374
03:00+25n710330 0.0 1013408
06:00+22n610440 0.0 1014407
09:00+23n89380 0.0 1014566
12:00+29n77240 0.0 1014857
15:00+33nnw77170 0.0 10111163
18:00+33nnw77160 0.0 10101241
21:00+30nnw58210 0.0 1012162
26 june, sun
sun2600:00+27n611280 0.0 1012338
03:00+24n710410 0.0 1012410
06:00+21n59510 0.0 1013344
09:00+23n67390 0.0 1014536
12:00+29n55250 0.0 1014928
15:00+32nnw77170 0.0 10111083
18:00+33nnw67160 0.0 10101270
21:00+30nnw46200 0.0 1012101
27 june, mon
mon2700:00+28nnw510290 0.0 1013201
03:00+24nne811420 0.0 1013388
06:00+21nne59540 0.0 1014333
09:00+23n78410 0.0 1015480
12:00+29n66220 0.0 1015826
15:00+33n66150 0.0 10131100
18:00+33n77160 0.0 10121180
21:00+30nnw47220 0.0 1014133
28 june, tue
tue2800:00+28n712260 0.0 1014356
03:00+24n711380 0.0 1014391
06:00+21n610510 0.0 1015359
09:00+23nne67430 0.0 1016538
12:00+29n66250 0.0 1015859
15:00+33nnw66180 0.0 10131085
18:00+34nnw67160 0.0 10121218
21:00+30nnw59210 0.0 1014167
29 june, wed
wed2900:00+27n812280 0.0 1014399
03:00+24n710410 0.0 1014387
06:00+21n610550 0.0 1015352
09:00+23n78440 0.0 1015503
12:00+29n66250 0.0 1014832
15:00+33nnw55170 0.0 10121105
18:00+33nnw66150 0.0 10111185
21:00+30nnw48200 0.0 1012121